User: anonymous   Login
Location: Charleston
(38.3500°N, 81.6330°W)
Time: 18:47:14
(UTC-05:00)
Language:

Cosmos 2228 - Orbit

View from above orbital plane
View from above orbital plane
View from above satellite
View from above satellite

Ground track
Ground track

The orbit data is extracted from the following two-line orbital elements,

1 22286U 92094A   16338.31295336  .00000275  00000-0  27398-4 0  9994
2 22286  82.5215 198.7610 0021864  54.0577 306.2665 14.87573224293371
Epoch (UTC): 03 December 2016 07:30:39
Eccentricity: 0.0021864
inclination: 82.5215°
perigee height: 590 km
apogee height: 621 km
right ascension of ascending node: 198.7610°
argument of perigee: 54.0577°
revolutions per day: 14.87573224
mean anomaly at epoch: 306.2665°
orbit number at epoch: 29337

The dashed part of the orbit path shows where the satellite is in the earth's shadow,  

DLR